Location: Campillo
(40.8621°N, 4.2488°W)
Time: 16:59:17
(UTC+00:00)

Cosmos 1777 Rocket - Pass Details

Date: 01 October 2021
Orbit: 759 x 775 km, 74.0° (Epoch: 23 October)

Event Time Altitude Azimuth Distance (km) Brightness Sun altitude
Rises 19:35:04 0° 240° (WSW) 3,225 8.0 -18.9°
Reaches altitude 10° 19:38:06 10° 257° (WSW) 2,300 7.4 -19.5°
Maximum altitude 19:41:48 19° 303° (WNW) 1,747 6.7 -20.2°
Drops below altitude 10° 19:45:31 10° 348° (NNW) 2,303 6.8 -20.9°
Sets 19:48:34 0° 6° (N) 3,231 7.3 -21.4°
